Time,TemperatureF,DewpointF,PressureIn,WindDirection,WindDirectionDegrees,WindSpeedMPH,WindSpeedGustMPH,Humidity,HourlyPrecipIn,Conditions,Clouds,dailyrainin,SoftwareType,DateUTC
2013-08-09 00:00:00,72.9,71.4,29.91,NNW,336,1.0,4.0,95,0.00,,,0.00,VWS V14.01,2013-08-09 04:00:00,
2013-08-09 00:10:00,72.9,71.4,29.91,NNE,19,1.0,4.0,95,0.00,,,0.00,VWS V14.01,2013-08-09 04:10:00,
2013-08-09 00:20:00,73.0,71.5,29.91,NNW,336,1.0,2.0,95,0.00,,,0.00,VWS V14.01,2013-08-09 04:20:00,
2013-08-09 00:30:00,73.0,71.5,29.90,NE,41,2.0,4.0,95,0.00,,,0.00,VWS V14.01,2013-08-09 04:30:00,
2013-08-09 00:40:00,72.9,71.4,29.90,East,80,1.0,3.0,95,0.00,,,0.00,VWS V14.01,2013-08-09 04:40:00,
2013-08-09 00:50:00,72.9,71.4,29.90,NW,325,0.0,2.0,95,0.00,,,0.00,VWS V14.01,2013-08-09 04:50:00,
2013-08-09 01:00:00,72.9,71.4,29.90,West,269,1.0,4.0,95,0.00,,,0.00,VWS V14.01,2013-08-09 05:00:00,
2013-08-09 01:10:00,72.9,71.4,29.90,NNW,345,1.0,3.0,95,0.00,,,0.00,VWS V14.01,2013-08-09 05:10:00,
2013-08-09 01:20:00,72.9,71.4,29.89,SW,231,1.0,3.0,95,0.00,,,0.00,VWS V14.01,2013-08-09 05:20:00,
2013-08-09 01:30:00,72.9,71.4,29.89,NNW,335,1.0,3.0,95,0.00,,,0.00,VWS V14.01,2013-08-09 05:30:00,
2013-08-09 01:40:00,72.9,71.4,29.89,WSW,256,1.0,3.0,95,0.00,,,0.00,VWS V14.01,2013-08-09 05:40:00,
2013-08-09 01:50:00,72.9,71.4,29.89,North,5,2.0,3.0,95,0.00,,,0.00,VWS V14.01,2013-08-09 05:50:00,
2013-08-09 02:00:00,72.9,71.4,29.88,ENE,60,1.0,3.0,95,0.00,,,0.00,VWS V14.01,2013-08-09 06:00:00,
2013-08-09 02:10:00,72.9,71.4,29.88,SSW,197,1.0,3.0,95,0.00,,,0.00,VWS V14.01,2013-08-09 06:10:00,
2013-08-09 02:20:00,72.9,71.7,29.87,NW,325,1.0,4.0,96,0.00,,,0.00,VWS V14.01,2013-08-09 06:20:00,
2013-08-09 02:30:00,73.0,71.5,29.87,WSW,257,2.0,4.0,95,0.00,,,0.00,VWS V14.01,2013-08-09 06:30:00,
2013-08-09 02:40:00,73.0,71.5,29.87,North,355,1.0,3.0,95,0.00,,,0.00,VWS V14.01,2013-08-09 06:40:00,
2013-08-09 02:50:00,73.0,71.5,29.87,ESE,123,1.0,4.0,95,0.00,,,0.00,VWS V14.01,2013-08-09 06:50:00,
2013-08-09 03:00:00,73.0,71.5,29.87,West,272,2.0,4.0,95,0.00,,,0.00,VWS V14.01,2013-08-09 07:00:00,
2013-08-09 03:10:00,73.1,71.6,29.87,SW,223,1.0,3.0,95,0.00,,,0.00,VWS V14.01,2013-08-09 07:10:00,
2013-08-09 03:20:00,73.1,71.6,29.86,WNW,303,1.0,4.0,95,0.00,,,0.00,VWS V14.01,2013-08-09 07:20:00,
2013-08-09 03:30:00,73.2,71.7,29.86,WNW,292,0.0,5.0,95,0.00,,,0.00,VWS V14.01,2013-08-09 07:30:00,
2013-08-09 03:40:00,73.2,71.4,29.86,NE,34,0.0,4.0,94,0.00,,,0.00,VWS V14.01,2013-08-09 07:40:00,
2013-08-09 03:50:00,73.2,71.4,29.85,NE,52,1.0,3.0,94,0.00,,,0.00,VWS V14.01,2013-08-09 07:50:00,
2013-08-09 04:00:00,73.2,71.4,29.85,West,267,1.0,2.0,94,0.00,,,0.00,VWS V14.01,2013-08-09 08:00:00,
2013-08-09 04:10:00,73.2,71.4,29.85,WNW,302,0.0,3.0,94,0.00,,,0.00,VWS V14.01,2013-08-09 08:10:00,
2013-08-09 04:20:00,73.2,71.4,29.85,WNW,288,0.0,3.0,94,0.00,,,0.00,VWS V14.01,2013-08-09 08:20:00,
2013-08-09 04:30:00,73.2,71.4,29.85,WNW,299,2.0,3.0,94,0.00,,,0.00,VWS V14.01,2013-08-09 08:30:00,
2013-08-09 04:40:00,73.2,71.7,29.85,West,277,1.0,3.0,95,0.00,,,0.00,VWS V14.01,2013-08-09 08:40:00,
2013-08-09 04:50:00,73.2,71.7,29.85,West,269,1.0,4.0,95,0.00,,,0.00,VWS V14.01,2013-08-09 08:50:00,
2013-08-09 05:00:00,73.2,71.7,29.85,WSW,238,2.0,6.0,95,0.00,,,0.00,VWS V14.01,2013-08-09 09:00:00,
2013-08-09 05:10:00,73.2,71.7,29.85,NE,51,0.0,4.0,95,0.00,,,0.00,VWS V14.01,2013-08-09 09:10:00,
2013-08-09 05:20:00,73.2,71.7,29.85,SSW,201,2.0,3.0,95,0.00,,,0.00,VWS V14.01,2013-08-09 09:20:00,
2013-08-09 05:30:00,73.2,71.7,29.85,West,277,0.0,2.0,95,0.00,,,0.00,VWS V14.01,2013-08-09 09:30:00,
2013-08-09 05:40:00,73.3,71.8,29.85,NNW,348,1.0,4.0,95,0.00,,,0.00,VWS V14.01,2013-08-09 09:40:00,
2013-08-09 05:50:00,73.3,71.8,29.84,WNW,292,1.0,3.0,95,0.00,,,0.00,VWS V14.01,2013-08-09 09:50:00,
2013-08-09 06:00:00,73.3,72.1,29.84,SW,215,2.0,3.0,96,0.00,,,0.00,VWS V14.01,2013-08-09 10:00:00,
2013-08-09 06:10:00,73.2,72.0,29.84,WSW,257,3.0,3.0,96,0.00,,,0.00,VWS V14.01,2013-08-09 10:10:00,
2013-08-09 06:20:00,73.2,72.0,29.84,SW,232,1.0,5.0,96,0.00,,,0.00,VWS V14.01,2013-08-09 10:20:00,
2013-08-09 06:30:00,73.2,72.0,29.84,NE,44,2.0,3.0,96,0.00,,,0.00,VWS V14.01,2013-08-09 10:30:00,
2013-08-09 06:40:00,73.1,71.9,29.84,North,360,0.0,3.0,96,0.00,,,0.00,VWS V14.01,2013-08-09 10:40:00,
2013-08-09 06:50:00,73.1,71.9,29.84,WSW,257,1.0,4.0,96,0.00,,,0.00,VWS V14.01,2013-08-09 10:50:00,
2013-08-09 07:00:00,73.1,71.9,29.83,NNW,348,2.0,3.0,96,0.00,,,0.00,VWS V14.01,2013-08-09 11:00:00,
2013-08-09 07:10:00,73.3,72.1,29.83,WSW,242,2.0,3.0,96,0.00,,,0.00,VWS V14.01,2013-08-09 11:10:00,
2013-08-09 07:20:00,73.4,72.2,29.83,NW,307,0.0,3.0,96,0.00,,,0.00,VWS V14.01,2013-08-09 11:20:00,
2013-08-09 07:40:00,73.4,72.2,29.83,WNW,292,1.0,4.0,96,0.00,,,0.00,VWS V14.01,2013-08-09 11:40:00,
2013-08-09 07:50:00,73.5,72.3,29.82,North,11,1.0,4.0,96,0.00,,,0.00,VWS V14.01,2013-08-09 11:50:00,
2013-08-09 08:00:00,73.5,72.3,29.81,NW,313,1.0,4.0,96,0.00,,,0.00,VWS V14.01,2013-08-09 12:00:00,
2013-08-09 08:10:00,73.6,72.4,29.81,WNW,283,0.0,3.0,96,0.00,,,0.00,VWS V14.01,2013-08-09 12:10:00,
2013-08-09 08:20:00,73.6,72.4,29.81,NE,36,0.0,4.0,96,0.00,,,0.00,VWS V14.01,2013-08-09 12:20:00,
2013-08-09 08:30:00,73.7,72.5,29.81,NNE,16,2.0,3.0,96,0.00,,,0.00,VWS V14.01,2013-08-09 12:30:00,
2013-08-09 08:40:00,73.8,72.6,29.81,West,277,1.0,5.0,96,0.00,,,0.00,VWS V14.01,2013-08-09 12:40:00,
2013-08-09 08:50:00,73.9,72.7,29.81,NE,48,0.0,4.0,96,0.00,,,0.00,VWS V14.01,2013-08-09 12:50:00,
2013-08-09 09:00:00,73.9,72.7,29.80,West,271,0.0,3.0,96,0.00,,,0.00,VWS V14.01,2013-08-09 13:00:00,
2013-08-09 09:10:00,73.9,72.7,29.80,West,270,0.0,4.0,96,0.00,,,0.00,VWS V14.01,2013-08-09 13:10:00,
2013-08-09 09:20:00,74.1,72.9,29.79,North,351,1.0,5.0,96,0.00,,,0.00,VWS V14.01,2013-08-09 13:20:00,
2013-08-09 09:30:00,74.2,73.0,29.79,NNE,29,1.0,5.0,96,0.00,,,0.00,VWS V14.01,2013-08-09 13:30:00,
2013-08-09 09:40:00,74.3,73.1,29.79,NW,308,2.0,4.0,96,0.00,,,0.00,VWS V14.01,2013-08-09 13:40:00,
2013-08-09 09:50:00,74.3,73.1,29.78,SW,232,2.0,4.0,96,0.00,,,0.00,VWS V14.01,2013-08-09 13:50:00,
2013-08-09 10:00:00,74.3,73.1,29.78,NE,34,1.0,4.0,96,0.00,,,0.00,VWS V14.01,2013-08-09 14:00:00,
2013-08-09 10:10:00,74.3,73.1,29.78,WSW,256,2.0,8.0,96,0.00,,,0.00,VWS V14.01,2013-08-09 14:10:00,
2013-08-09 10:20:00,74.3,73.1,29.78,NNE,30,2.0,6.0,96,0.00,,,0.00,VWS V14.01,2013-08-09 14:20:00,
2013-08-09 10:30:00,74.4,73.2,29.78,NNE,15,1.0,4.0,96,0.00,,,0.00,VWS V14.01,2013-08-09 14:30:00,
2013-08-09 10:40:00,74.5,73.3,29.78,West,264,1.0,4.0,96,0.00,,,0.00,VWS V14.01,2013-08-09 14:40:00,
2013-08-09 10:50:00,74.6,73.1,29.77,NE,49,2.0,5.0,95,0.00,,,0.00,VWS V14.01,2013-08-09 14:50:00,
2013-08-09 11:00:00,74.7,73.2,29.77,West,261,4.0,5.0,95,0.00,,,0.00,VWS V14.01,2013-08-09 15:00:00,
2013-08-09 11:10:00,74.7,73.2,29.77,NW,321,1.0,6.0,95,0.00,,,0.00,VWS V14.01,2013-08-09 15:10:00,
2013-08-09 11:20:00,74.7,73.2,29.76,NNE,30,1.0,4.0,95,0.00,,,0.00,VWS V14.01,2013-08-09 15:20:00,
2013-08-09 11:30:00,74.8,73.3,29.75,WSW,250,2.0,7.0,95,0.00,,,0.00,VWS V14.01,2013-08-09 15:30:00,
2013-08-09 11:40:00,74.8,73.3,29.75,NNE,19,0.0,5.0,95,0.06,,,0.06,VWS V14.01,2013-08-09 15:40:00,
2013-08-09 11:50:00,74.4,73.5,29.74,West,278,2.0,11.0,97,0.06,,,0.06,VWS V14.01,2013-08-09 15:50:00,
2013-08-09 12:00:00,74.3,73.4,29.74,NNE,23,3.0,5.0,97,0.06,,,0.06,VWS V14.01,2013-08-09 16:00:00,
2013-08-09 12:10:00,74.2,73.3,29.74,NNE,26,2.0,6.0,97,0.06,,,0.06,VWS V14.01,2013-08-09 16:10:00,
2013-08-09 12:20:00,74.1,73.5,29.73,West,271,1.0,4.0,98,0.06,,,0.06,VWS V14.01,2013-08-09 16:20:00,
2013-08-09 12:30:00,74.1,73.5,29.73,WNW,303,0.0,6.0,98,0.06,,,0.06,VWS V14.01,2013-08-09 16:30:00,
2013-08-09 12:40:00,74.2,73.6,29.73,NE,37,0.0,4.0,98,0.06,,,0.06,VWS V14.01,2013-08-09 16:40:00,
2013-08-09 12:50:00,74.4,74.1,29.72,ENE,59,1.0,5.0,99,0.00,,,0.06,VWS V14.01,2013-08-09 16:50:00,
2013-08-09 13:00:00,74.6,74.3,29.71,NE,34,1.0,5.0,99,0.00,,,0.06,VWS V14.01,2013-08-09 17:00:00,
2013-08-09 13:10:00,74.8,74.5,29.71,NW,315,2.0,6.0,99,0.00,,,0.06,VWS V14.01,2013-08-09 17:10:00,
2013-08-09 13:20:00,75.0,74.7,29.70,NE,48,4.0,6.0,99,0.00,,,0.06,VWS V14.01,2013-08-09 17:20:00,
2013-08-09 13:30:00,75.1,74.8,29.70,East,96,1.0,7.0,99,0.00,,,0.06,VWS V14.01,2013-08-09 17:30:00,
2013-08-09 13:40:00,75.3,75.0,29.70,North,350,4.0,10.0,99,0.00,,,0.06,VWS V14.01,2013-08-09 17:40:00,
2013-08-09 13:50:00,75.5,74.9,29.69,WSW,250,4.0,10.0,98,0.00,,,0.06,VWS V14.01,2013-08-09 17:50:00,
2013-08-09 14:00:00,75.7,74.8,29.69,WSW,238,1.0,7.0,97,0.00,,,0.06,VWS V14.01,2013-08-09 18:00:00,
2013-08-09 14:10:00,76.0,75.1,29.69,NE,47,2.0,9.0,97,0.00,,,0.06,VWS V14.01,2013-08-09 18:10:00,
2013-08-09 14:20:00,76.8,75.9,29.69,NE,35,1.0,6.0,97,0.00,,,0.06,VWS V14.01,2013-08-09 18:20:00,
2013-08-09 14:30:00,77.5,76.0,29.69,SW,224,6.0,6.0,95,0.00,,,0.06,VWS V14.01,2013-08-09 18:30:00,
2013-08-09 14:40:00,77.9,75.7,29.69,ENE,72,1.0,7.0,93,0.00,,,0.06,VWS V14.01,2013-08-09 18:40:00,
2013-08-09 14:50:00,78.0,75.5,29.69,SW,228,5.0,10.0,92,0.00,,,0.06,VWS V14.01,2013-08-09 18:50:00,
2013-08-09 15:00:00,77.4,74.6,29.69,WSW,258,2.0,12.0,91,0.00,,,0.06,VWS V14.01,2013-08-09 19:00:00,
2013-08-09 15:10:00,76.8,74.3,29.69,NNW,331,3.0,7.0,92,0.00,,,0.06,VWS V14.01,2013-08-09 19:10:00,
2013-08-09 15:20:00,76.2,74.0,29.69,West,267,0.0,6.0,93,0.00,,,0.06,VWS V14.01,2013-08-09 19:20:00,
2013-08-09 15:30:00,75.9,73.7,29.69,WSW,248,3.0,10.0,93,0.00,,,0.06,VWS V14.01,2013-08-09 19:30:00,
2013-08-09 15:40:00,75.8,73.9,29.69,SW,225,1.0,5.0,94,0.00,,,0.06,VWS V14.01,2013-08-09 19:40:00,
2013-08-09 15:50:00,76.6,74.8,29.69,WSW,251,1.0,10.0,94,0.00,,,0.06,VWS V14.01,2013-08-09 19:50:00,
2013-08-09 16:00:00,77.3,74.5,29.68,WSW,251,3.0,7.0,91,0.00,,,0.06,VWS V14.01,2013-08-09 20:00:00,
2013-08-09 16:10:00,77.3,74.8,29.68,SW,233,1.0,7.0,92,0.00,,,0.06,VWS V14.01,2013-08-09 20:10:00,
2013-08-09 16:20:00,77.3,74.8,29.68,NE,36,0.0,4.0,92,0.00,,,0.06,VWS V14.01,2013-08-09 20:20:00,
2013-08-09 16:30:00,77.3,74.8,29.67,NNE,15,2.0,5.0,92,0.00,,,0.06,VWS V14.01,2013-08-09 20:30:00,
2013-08-09 16:40:00,77.2,74.7,29.67,West,270,2.0,5.0,92,0.00,,,0.06,VWS V14.01,2013-08-09 20:40:00,
2013-08-09 16:50:00,77.0,74.5,29.67,WNW,292,2.0,5.0,92,0.00,,,0.06,VWS V14.01,2013-08-09 20:50:00,
2013-08-09 17:00:00,77.0,74.5,29.67,ENE,58,1.0,5.0,92,0.00,,,0.06,VWS V14.01,2013-08-09 21:00:00,
2013-08-09 17:10:00,77.0,74.5,29.67,NW,317,1.0,4.0,92,0.00,,,0.06,VWS V14.01,2013-08-09 21:10:00,
2013-08-09 17:20:00,76.9,74.7,29.67,WSW,242,1.0,4.0,93,0.00,,,0.06,VWS V14.01,2013-08-09 21:20:00,
2013-08-09 17:30:00,76.8,74.3,29.67,WNW,284,0.0,3.0,92,0.00,,,0.06,VWS V14.01,2013-08-09 21:30:00,
2013-08-09 17:40:00,76.6,74.4,29.67,SW,221,1.0,7.0,93,0.00,,,0.06,VWS V14.01,2013-08-09 21:40:00,
2013-08-09 17:50:00,76.5,74.3,29.67,SW,223,2.0,4.0,93,0.00,,,0.06,VWS V14.01,2013-08-09 21:50:00,
2013-08-09 18:00:00,76.4,74.2,29.67,SW,230,0.0,5.0,93,0.00,,,0.06,VWS V14.01,2013-08-09 22:00:00,
2013-08-09 18:10:00,76.2,74.0,29.67,SSE,165,1.0,4.0,93,0.00,,,0.06,VWS V14.01,2013-08-09 22:10:00,
2013-08-09 18:20:00,76.1,73.9,29.67,SW,219,3.0,4.0,93,0.00,,,0.06,VWS V14.01,2013-08-09 22:20:00,
2013-08-09 18:30:00,76.0,73.8,29.67,WSW,256,2.0,4.0,93,0.00,,,0.06,VWS V14.01,2013-08-09 22:30:00,
2013-08-09 18:40:00,75.8,73.6,29.67,NNE,19,1.0,5.0,93,0.00,,,0.06,VWS V14.01,2013-08-09 22:40:00,
2013-08-09 18:50:00,75.7,73.5,29.67,South,191,1.0,6.0,93,0.00,,,0.06,VWS V14.01,2013-08-09 22:50:00,
2013-08-09 19:00:00,75.6,73.8,29.69,WNW,296,2.0,5.0,94,0.00,,,0.06,VWS V14.01,2013-08-09 23:00:00,
2013-08-09 19:10:00,75.3,73.5,29.69,WSW,245,3.0,5.0,94,0.00,,,0.06,VWS V14.01,2013-08-09 23:10:00,
2013-08-09 19:20:00,75.1,73.6,29.68,NW,325,0.0,3.0,95,0.00,,,0.06,VWS V14.01,2013-08-09 23:20:00,
2013-08-09 19:30:00,75.1,73.6,29.69,WNW,296,1.0,4.0,95,0.00,,,0.06,VWS V14.01,2013-08-09 23:30:00,
2013-08-09 19:40:00,74.9,73.4,29.69,SW,229,0.0,3.0,95,0.00,,,0.06,VWS V14.01,2013-08-09 23:40:00,
2013-08-09 19:50:00,74.9,73.4,29.69,SW,215,0.0,5.0,95,0.00,,,0.06,VWS V14.01,2013-08-09 23:50:00,
2013-08-09 20:00:00,74.8,73.3,29.67,WSW,239,1.0,3.0,95,0.00,,,0.06,VWS V14.01,2013-08-10 00:00:00,
2013-08-09 20:10:00,74.7,73.5,29.67,SW,232,0.0,5.0,96,0.00,,,0.06,VWS V14.01,2013-08-10 00:10:00,
2013-08-09 20:20:00,74.6,73.4,29.67,WSW,254,0.0,3.0,96,0.00,,,0.06,VWS V14.01,2013-08-10 00:20:00,
2013-08-09 20:30:00,74.5,73.3,29.67,WSW,245,0.0,2.0,96,0.00,,,0.06,VWS V14.01,2013-08-10 00:30:00,
2013-08-09 20:40:00,74.4,73.2,29.67,WSW,246,0.0,3.0,96,0.00,,,0.06,VWS V14.01,2013-08-10 00:40:00,
2013-08-09 20:50:00,74.4,73.2,29.67,SSE,163,0.0,4.0,96,0.00,,,0.06,VWS V14.01,2013-08-10 00:50:00,
2013-08-09 21:00:00,74.4,73.2,29.68,SSW,194,1.0,2.0,96,0.00,,,0.06,VWS V14.01,2013-08-10 01:00:00,
2013-08-09 21:10:00,74.4,73.2,29.68,SSW,198,1.0,3.0,96,0.00,,,0.06,VWS V14.01,2013-08-10 01:10:00,
2013-08-09 21:20:00,74.4,73.2,29.68,WSW,242,0.0,3.0,96,0.00,,,0.06,VWS V14.01,2013-08-10 01:20:00,
2013-08-09 21:30:00,74.4,73.2,29.69,SSW,209,0.0,2.0,96,0.00,,,0.06,VWS V14.01,2013-08-10 01:30:00,
2013-08-09 21:40:00,74.3,72.8,29.69,West,263,0.0,2.0,95,0.00,,,0.06,VWS V14.01,2013-08-10 01:40:00,
2013-08-09 21:50:00,74.2,72.7,29.69,SW,219,1.0,4.0,95,0.00,,,0.06,VWS V14.01,2013-08-10 01:50:00,
2013-08-09 22:00:00,74.2,72.7,29.69,South,189,1.0,3.0,95,0.00,,,0.06,VWS V14.01,2013-08-10 02:00:00,
2013-08-09 22:10:00,74.1,72.6,29.69,SW,227,0.0,3.0,95,0.00,,,0.06,VWS V14.01,2013-08-10 02:10:00,
2013-08-09 22:20:00,74.1,72.6,29.69,WSW,244,0.0,3.0,95,0.00,,,0.06,VWS V14.01,2013-08-10 02:20:00,
2013-08-09 22:30:00,74.2,72.7,29.69,SW,225,1.0,2.0,95,0.00,,,0.06,VWS V14.01,2013-08-10 02:30:00,
2013-08-09 22:40:00,74.2,72.7,29.69,SW,220,1.0,3.0,95,0.00,,,0.06,VWS V14.01,2013-08-10 02:40:00,
2013-08-09 22:50:00,74.1,72.6,29.69,WSW,239,1.0,4.0,95,0.00,,,0.06,VWS V14.01,2013-08-10 02:50:00,
2013-08-09 23:00:00,74.1,72.6,29.69,SW,226,1.0,2.0,95,0.00,,,0.06,VWS V14.01,2013-08-10 03:00:00,
2013-08-09 23:10:00,74.2,73.0,29.69,SW,228,1.0,3.0,96,0.00,,,0.06,VWS V14.01,2013-08-10 03:10:00,
2013-08-09 23:20:00,74.1,72.9,29.69,SW,217,1.0,2.0,96,0.00,,,0.06,VWS V14.01,2013-08-10 03:20:00,
2013-08-09 23:30:00,74.1,72.9,29.69,SW,224,1.0,3.0,96,0.00,,,0.06,VWS V14.01,2013-08-10 03:30:00,
2013-08-09 23:40:00,74.0,72.8,29.69,SSW,211,1.0,2.0,96,0.00,,,0.06,VWS V14.01,2013-08-10 03:40:00,
2013-08-09 23:50:00,74.0,72.8,29.69,SW,215,0.0,2.0,96,0.00,,,0.06,VWS V14.01,2013-08-10 03:50:00,